GFSCGP_850_thetae_159.txt.gz
Theta_e
317 318 318 320 321 322 323 324 325 326 326 326 326 326 325 323 321 321 320 320 320 320 320 320 323 325 325 332 346 354 358 357 357 354 354 354 354 355 356 355 354 353 353 352
320 319 319 318 319 321 321 323 325 326 327 326 325 325 325 325 324 322 321 320 320 321 321 320 321 324 324 325 327 338 346 351 345 350 350 350 351 353 353 353 353 353 353 351
321 321 320 319 319 319 320 322 324 325 325 325 324 324 324 325 324 323 323 322 321 321 321 321 321 324 324 325 326 319 322 338 332 346 349 352 351 352 355 353 355 353 352 349
322 321 321 320 320 318 320 320 322 324 325 324 324 325 324 324 324 324 323 322 322 322 322 321 321 321 324 325 327 318 318 320 336 343 348 349 343 347 348 348 352 352 350 348
321 321 321 321 321 320 319 319 321 322 323 324 323 325 325 324 324 325 325 323 323 322 323 322 321 321 322 323 326 323 318 321 335 342 347 345 343 347 351 349 350 349 349 347
319 317 319 320 322 321 320 320 321 321 321 322 322 323 323 323 324 325 325 324 323 323 323 323 322 321 322 323 325 327 324 322 336 343 350 341 340 348 351 347 349 349 348 346
319 318 318 319 322 322 321 322 325 323 322 323 322 322 322 323 324 324 325 324 324 323 323 323 323 322 322 322 325 328 335 337 346 349 350 344 344 349 345 349 350 348 347 347
321 321 320 319 320 322 322 321 324 325 324 322 321 323 323 323 323 323 324 323 324 324 324 324 323 323 322 322 325 329 341 347 350 347 347 349 347 346 350 348 346 347 345 344
325 322 318 318 320 322 321 321 322 322 323 325 322 323 323 324 323 324 323 324 324 325 326 325 324 323 323 325 326 334 345 347 345 343 348 346 347 347 346 347 345 344 343 342
318 323 320 320 320 321 322 322 322 323 328 330 325 324 324 324 324 324 324 324 331 334 329 326 324 324 326 330 338 345 345 342 344 344 345 346 346 346 344 341 339 338 337 335
315 320 322 321 323 324 321 324 324 324 323 324 323 324 326 325 325 324 324 335 338 335 342 340 333 335 340 344 343 342 341 341 342 345 344 343 342 340 338 335 333 332 332 333
316 317 321 319 320 322 322 321 326 329 328 324 327 333 331 330 331 332 338 338 338 340 341 342 342 341 340 340 340 341 339 339 340 338 337 334 333 331 330 329 327 326 324 324
313 318 321 325 323 322 325 322 322 325 326 327 327 331 330 329 330 332 335 334 336 337 337 337 338 338 337 339 341 340 338 337 335 333 331 330 328 327 326 324 323 322 322 321
313 315 319 321 321 321 324 324 324 324 330 330 328 327 332 332 332 332 330 332 337 337 337 336 337 338 340 338 336 335 334 332 331 329 328 326 325 323 322 320 319 318 317 316
312 315 316 317 317 317 320 325 324 326 327 328 326 326 330 331 331 330 330 332 335 335 335 335 335 334 333 332 331 330 329 327 326 325 324 322 321 320 318 316 315 313 312 312
312 315 313 315 317 319 320 323 324 325 325 325 326 327 322 325 328 329 329 330 331 330 332 330 329 328 327 326 325 324 323 323 322 321 320 319 318 317 315 315 314 312 312 311
312 313 317 319 320 321 325 326 325 325 325 325 326 327 329 329 327 327 328 327 327 326 325 325 324 323 323 322 322 321 321 320 319 318 317 316 315 314 314 314 313 312 310 309
312 314 315 322 329 331 326 325 325 325 324 324 324 329 329 329 326 327 326 325 323 322 322 321 321 321 320 320 319 319 317 317 316 315 314 314 313 313 312 311 310 309 308 308
314 313 317 329 328 328 326 328 325 325 325 324 324 326 328 327 326 325 322 321 320 319 318 317 317 315 316 315 315 314 313 313 312 312 310 309 309 309 308 307 307 307 306 307
314 313 316 320 328 332 325 323 323 327 330 325 325 323 328 326 327 323 317 314 315 314 314 313 314 313 312 313 312 313 312 311 310 309 308 308 307 305 306 305 306 306 307 307
318 317 318 320 325 325 318 319 323 331 329 326 325 325 327 329 326 319 317 316 315 313 313 313 313 313 313 313 311 311 310 309 308 308 307 306 305 304 304 305 307 306 305 304
321 321 322 323 325 327 312 321 328 326 326 327 325 327 327 325 322 320 318 316 316 315 313 313 315 314 312 311 310 310 309 307 306 305 305 304 304 304 305 305 305 304 303 304
320 317 319 314 315 311 313 317 320 322 326 325 326 326 322 318 315 315 313 313 315 316 316 315 314 311 310 310 310 309 307 305 303 304 304 304 305 305 303 303 302 304 302 303
316 313 314 313 308 311 312 311 311 314 314 319 320 318 316 311 310 311 313 311 312 310 310 310 309 308 307 307 306 305 303 300 301 304 304 304 304 302 301 301 300 300 300 301
312 311 309 308 304 308 310 309 307 307 307 309 308 309 307 309 308 311 311 310 309 309 309 309 309 308 307 305 302 300 300 300 302 303 303 303 303 301 300 300 300 300 302 302
313 315 316 311 307 307 311 310 311 308 306 306 307 308 308 310 310 310 310 310 309 309 309 309 308 306 304 302 302 301 300 299 302 303 301 301 302 301 300 299 300 300 300 301

GFSCGP_850_thetae_162.txt.gz
Theta_e
316 318 319 318 319 321 322 323 323 324 325 326 327 327 327 325 323 323 323 323 321 321 321 321 321 326 332 358 358 356 356 355 355 356 353 354 350 353 352 353 352 352 353 352
320 318 318 319 317 319 320 321 322 323 324 325 327 327 328 328 325 323 323 323 322 322 321 321 321 324 327 338 356 359 357 356 356 356 357 355 357 355 355 355 353 354 354 353
321 320 319 320 319 319 318 320 321 321 322 324 326 329 328 326 327 325 323 323 322 321 322 322 323 322 326 328 342 354 360 357 357 358 356 353 353 356 355 354 353 353 352 352
321 320 319 319 320 321 320 319 319 320 322 324 324 328 330 327 326 327 326 323 323 321 321 323 323 324 325 328 332 341 354 355 353 356 350 352 352 353 354 356 355 353 353 352
322 321 321 320 321 321 322 321 319 319 320 322 323 326 327 327 326 326 327 326 325 323 322 322 324 323 326 329 325 324 330 342 340 341 352 351 352 352 352 356 354 356 353 351
320 319 320 320 320 321 321 322 323 320 320 322 322 325 326 327 327 327 326 326 325 324 323 322 324 323 324 328 326 324 322 321 337 335 344 350 347 345 344 343 342 345 347 348
318 319 317 317 317 318 319 322 328 323 322 323 321 323 324 326 326 326 326 326 325 325 324 324 323 324 324 324 327 325 323 323 330 344 341 348 347 350 352 348 344 347 348 348
319 321 319 319 319 319 320 321 327 326 324 322 322 323 323 324 324 325 324 325 326 325 324 324 324 325 323 324 325 326 324 325 327 347 349 350 343 352 349 345 347 347 346 344
322 320 319 318 319 320 321 321 321 326 321 321 321 323 323 324 324 324 324 325 326 326 325 325 324 325 324 323 325 329 327 330 347 350 351 347 344 346 348 349 346 346 345 344
320 321 317 317 318 319 320 322 325 325 325 328 326 327 324 324 325 325 326 326 326 326 326 326 325 325 325 323 327 332 344 347 351 350 349 350 346 349 349 346 345 344 343 341
316 318 318 318 322 321 321 323 322 324 324 324 327 328 331 331 327 327 326 325 325 328 339 338 327 327 325 328 337 348 346 349 346 345 345 345 345 346 346 345 341 338 336 335
314 317 319 318 317 318 321 323 324 327 326 324 327 329 329 332 330 328 329 329 333 343 345 346 337 336 340 346 347 346 346 345 343 343 343 343 342 343 340 336 334 332 331 329
315 318 319 322 321 320 323 321 323 323 323 328 330 330 330 330 336 337 340 340 342 343 343 343 345 345 344 344 344 343 342 342 342 341 339 338 337 334 330 327 325 323 322 322
314 315 316 319 319 318 320 320 321 324 327 327 325 328 329 326 333 333 337 338 338 340 342 342 343 342 341 341 341 340 340 338 334 332 331 329 327 325 324 323 321 320 318 317
315 314 314 315 315 316 317 318 319 322 326 329 327 326 328 331 333 331 334 337 338 339 340 339 340 339 338 338 338 335 333 331 329 327 325 324 323 321 319 317 316 315 314 313
315 315 315 315 316 318 319 319 319 320 324 325 325 323 327 329 329 331 334 335 336 336 337 336 336 336 336 334 332 330 328 326 325 322 320 319 318 317 316 315 313 311 310 309
314 315 314 316 316 316 324 321 321 322 325 324 329 327 326 329 329 331 331 332 332 329 332 332 330 329 328 327 325 324 323 321 320 319 318 316 316 315 315 314 312 309 306 304
314 314 315 315 316 324 323 321 322 325 326 324 327 325 327 328 327 329 329 327 325 324 324 324 324 323 323 322 321 320 319 318 316 315 315 314 314 312 311 309 306 304 304 305
314 315 316 315 322 321 328 326 328 328 326 325 328 324 328 326 322 321 324 323 322 321 320 320 320 320 319 318 317 316 315 314 313 312 311 310 309 306 304 303 304 305 307 309
314 314 314 317 324 330 323 320 320 327 331 328 327 322 327 325 325 320 318 319 318 318 317 316 316 316 315 314 313 312 311 310 310 309 308 306 303 302 302 304 307 308 309 309
316 314 317 317 324 324 315 316 323 330 331 328 328 328 326 326 321 315 316 316 316 315 315 314 314 314 314 313 312 310 309 309 308 307 306 303 303 305 306 308 307 306 306 306
319 322 321 320 324 327 311 318 325 323 324 326 327 327 327 320 316 315 316 315 315 313 313 312 312 312 311 311 311 309 308 307 305 305 304 305 305 307 306 306 306 306 306 305
319 316 316 314 313 309 312 312 313 323 325 324 325 325 320 318 317 314 313 314 313 313 313 312 311 311 310 310 310 309 308 305 303 305 306 306 306 305 305 304 304 304 304 304
313 311 313 313 309 308 310 309 308 313 316 321 320 320 318 315 314 314 313 313 314 313 312 311 311 310 311 311 310 309 306 301 304 305 304 306 305 304 303 303 303 304 303 302
312 311 311 311 308 308 309 308 307 309 311 314 314 312 313 313 312 312 312 312 313 312 311 309 309 308 307 306 304 302 301 302 303 304 305 305 303 302 303 303 303 303 303 303
310 311 313 310 307 310 310 308 307 307 307 308 309 309 309 310 310 311 310 310 310 310 309 309 308 306 305 304 303 301 300 301 304 304 303 303 303 302 301 302 301 300 301 302

GFSCGP_850_thetae_165.txt.gz
Theta_e
314 313 316 315 317 319 320 321 321 321 321 322 322 323 323 322 322 322 321 322 321 320 321 321 321 321 321 342 351 350 348 343 343 348 347 351 351 350 352 350 352 351 351 351
319 315 314 317 317 317 318 318 318 319 320 320 321 322 323 323 323 323 321 322 322 321 320 320 321 321 321 330 354 351 350 346 335 340 351 346 351 349 351 350 350 353 352 352
318 319 320 317 316 317 317 316 317 318 319 319 319 320 320 323 324 323 322 322 322 322 321 321 321 321 321 335 356 353 352 350 352 353 354 346 346 348 351 351 352 352 352 352
314 317 319 319 319 317 318 318 318 317 317 319 318 320 319 323 324 324 322 322 322 322 322 321 321 321 321 325 352 355 353 354 354 354 354 355 349 355 353 354 354 353 351 353
318 317 320 321 320 320 320 321 321 322 321 318 317 318 319 323 324 324 322 322 322 323 322 322 322 321 321 325 328 351 357 356 355 356 355 355 354 352 357 357 355 356 353 353
317 315 318 318 318 319 321 321 322 322 321 324 317 317 318 320 322 323 324 323 323 323 322 321 321 320 324 325 327 329 349 355 357 355 353 355 350 354 354 356 357 355 354 353
316 316 316 318 317 317 317 318 325 325 324 324 318 317 318 320 323 324 323 323 323 323 322 321 322 321 322 328 328 332 339 338 352 354 351 351 348 350 352 352 353 353 344 343
316 317 316 316 316 318 317 317 320 324 322 322 320 319 318 319 320 323 324 324 324 323 325 322 322 323 322 329 330 330 332 343 344 349 350 352 351 352 350 341 341 338 345 348
319 319 316 317 318 318 320 320 319 321 322 325 323 320 318 319 320 320 320 321 320 322 324 324 323 323 323 327 329 327 325 324 325 327 336 347 350 348 350 347 344 347 347 345
316 318 315 317 318 318 319 320 323 317 323 322 322 322 320 325 326 321 320 319 320 321 324 324 324 323 323 324 327 326 325 324 325 330 348 350 349 348 350 345 349 347 345 344
315 316 315 315 320 320 319 321 321 320 322 322 320 319 324 327 325 326 327 319 321 326 324 324 324 323 323 324 324 327 327 329 337 343 351 350 348 348 347 348 346 345 343 340
314 314 315 316 315 318 319 321 321 320 321 322 321 322 325 326 325 325 331 324 344 343 337 333 328 324 325 325 335 340 338 332 342 344 350 349 347 346 346 346 341 338 334 330
314 315 313 314 320 316 316 315 321 321 323 323 322 325 322 326 326 326 335 341 343 344 343 339 336 337 342 346 347 343 340 344 346 346 345 344 345 343 341 337 334 332 331 328
313 313 314 314 316 315 317 317 318 319 322 322 323 322 323 322 326 327 329 337 342 343 344 343 342 343 343 346 344 343 345 343 343 344 343 341 338 334 331 330 327 324 321 320
313 309 313 314 314 313 314 315 316 317 318 323 324 325 326 325 328 324 326 333 336 341 340 341 341 340 340 340 341 340 340 340 341 340 339 334 327 326 324 323 321 319 318 317
313 315 313 313 313 315 316 316 316 318 319 320 323 326 325 326 327 328 329 333 336 340 341 340 340 338 335 335 333 331 332 331 334 334 330 326 324 321 319 317 316 315 313 310
309 311 311 310 314 314 317 320 320 319 318 319 326 324 323 326 328 329 330 329 326 332 335 335 334 331 331 329 328 327 326 326 327 324 321 318 316 316 315 313 311 309 307 304
310 310 314 313 312 316 323 320 321 319 319 321 326 324 323 326 324 326 326 324 323 326 325 325 326 324 324 323 322 322 322 319 318 316 316 315 315 314 312 309 305 304 304 305
311 313 315 314 315 317 320 319 320 324 325 325 325 327 325 321 321 321 322 321 321 320 319 318 320 320 321 320 319 318 317 316 315 314 314 313 311 309 305 303 304 305 306 307
314 312 314 315 316 320 318 315 316 321 330 324 326 326 324 324 322 320 319 318 318 320 320 319 316 318 319 317 317 316 315 314 312 311 309 306 304 303 303 304 305 308 309 309
315 312 314 315 316 318 312 313 318 328 327 321 325 325 324 322 318 316 316 316 316 316 315 316 316 314 313 313 314 311 309 308 307 305 303 303 304 304 305 306 307 308 309 309
316 317 317 317 320 320 309 313 320 316 312 320 325 324 316 315 315 315 315 315 313 314 314 313 313 311 311 310 309 307 306 305 304 303 303 305 305 306 305 307 308 306 306 305
316 314 314 312 312 308 309 310 309 312 324 325 323 317 315 314 313 314 314 314 312 312 311 310 310 309 309 308 307 305 303 303 303 304 304 305 305 305 305 305 305 305 305 304
313 310 313 311 310 309 308 308 309 312 319 321 323 317 316 314 313 312 312 312 311 311 310 310 310 309 310 309 308 305 303 303 303 305 306 306 304 305 305 305 305 305 304 304
309 311 311 310 308 309 308 308 308 310 312 316 317 315 314 313 313 312 312 312 311 311 311 311 312 312 311 311 310 307 306 304 303 303 304 304 304 304 304 304 304 304 304 304
308 310 311 309 310 309 309 309 308 308 308 311 311 311 312 312 312 312 312 311 310 310 309 308 307 307 305 303 302 301 301 301 303 304 304 303 303 302 302 303 303 303 304 304

GFSCGP_850_thetae_168.txt.gz
Theta_e
314 311 312 313 314 316 318 319 320 320 319 319 320 320 320 320 320 320 320 321 320 321 321 321 322 322 321 334 345 347 347 344 344 344 343 347 346 345 343 342 348 348 348 349
318 316 313 313 314 315 316 318 319 318 318 317 317 318 318 318 319 321 321 321 323 322 322 320 320 321 322 328 339 347 348 348 344 344 342 348 346 344 341 344 348 351 349 350
319 318 318 316 314 315 316 316 316 317 317 316 316 317 317 317 319 321 322 322 323 323 321 321 320 320 321 324 331 341 348 349 348 341 343 349 349 347 346 349 351 349 351 352
316 315 316 316 318 318 318 316 317 319 318 315 316 318 317 316 317 320 321 321 321 323 324 322 321 320 320 320 323 336 346 349 348 343 343 344 346 350 347 345 351 351 351 351
317 317 317 317 318 319 321 319 320 321 320 320 320 315 315 316 318 318 318 322 322 321 324 322 321 321 320 320 321 332 348 350 350 348 341 345 349 350 349 343 349 348 350 351
317 316 316 316 317 317 318 319 320 321 320 322 320 318 319 315 316 318 318 321 322 322 321 322 322 321 322 321 322 327 348 351 351 348 346 343 340 352 343 343 346 350 351 348
311 312 313 316 317 316 318 320 323 324 324 326 320 320 319 315 315 317 318 319 322 320 320 322 322 322 321 320 324 327 346 352 351 351 352 353 352 353 348 352 353 350 346 346
313 313 313 315 316 315 316 317 323 324 325 320 319 322 319 318 316 318 319 320 322 324 322 322 322 322 321 321 322 339 344 353 353 352 354 355 351 351 351 347 342 346 344 345
313 317 313 314 315 317 318 318 318 321 320 322 322 320 318 317 318 317 317 319 321 322 323 323 324 323 321 321 321 331 348 351 354 354 354 355 351 348 344 345 350 350 346 344
312 313 314 315 316 316 316 318 318 314 321 323 320 320 319 318 320 320 322 321 322 321 320 320 322 322 323 322 321 323 343 342 344 347 350 352 349 348 350 350 347 342 344 344
313 315 315 314 317 317 318 319 318 316 319 319 318 316 320 318 323 323 322 323 326 328 325 319 320 322 323 322 322 324 343 352 342 344 349 350 351 351 350 345 346 343 346 347
313 312 315 315 314 317 319 316 319 318 319 320 318 318 321 323 324 324 323 324 330 331 324 323 320 321 321 321 325 331 341 349 343 345 347 346 349 348 346 347 347 346 345 342
312 314 312 308 317 315 316 315 316 318 319 318 319 318 320 320 320 321 321 322 332 341 333 328 324 321 320 324 329 334 338 339 341 342 339 345 346 347 347 344 344 342 340 334
313 312 312 313 313 314 315 314 316 317 321 321 321 320 320 320 321 321 323 323 322 341 339 332 326 327 326 329 333 343 343 336 337 340 341 346 346 345 342 341 337 337 332 329
311 310 311 312 313 313 313 314 313 316 318 322 320 321 323 324 323 320 320 322 320 332 342 341 343 342 341 341 342 341 343 343 341 339 345 344 342 340 339 333 332 330 327 324
310 314 310 310 312 313 314 313 312 314 317 317 318 320 323 324 324 323 324 320 325 336 339 340 339 339 339 339 335 336 341 343 342 341 341 337 335 335 330 330 326 322 318 317
307 306 310 311 312 312 314 320 321 321 315 317 320 320 326 325 326 326 325 327 326 326 331 334 334 335 332 331 332 337 338 339 337 337 331 328 329 327 321 320 317 315 312 309
307 307 310 312 309 312 319 316 317 320 318 317 319 324 325 325 324 323 323 323 324 325 324 328 328 327 324 325 332 330 331 330 329 326 325 324 324 319 316 313 311 308 305 305
307 309 312 313 310 313 318 316 316 319 323 322 324 324 323 321 322 321 318 319 320 320 320 322 322 321 319 320 320 324 323 324 323 321 318 317 316 315 311 307 304 305 306 307
311 310 313 314 315 317 317 312 311 316 328 321 324 323 322 320 320 320 317 318 317 318 320 317 318 320 317 317 316 321 319 318 316 315 314 313 311 307 304 304 305 307 308 309
314 312 314 315 315 316 311 310 313 325 324 313 316 323 319 319 317 315 316 316 315 314 314 314 314 315 318 315 313 316 315 313 312 311 309 306 303 303 305 305 307 308 309 308
315 315 316 315 316 317 308 311 317 313 310 313 319 317 316 315 314 313 313 313 314 312 313 315 313 311 313 316 310 309 307 305 305 304 303 304 305 305 306 307 308 308 307 308
314 313 313 312 312 308 309 309 309 310 312 318 317 316 315 314 313 312 311 311 311 311 311 311 312 309 309 308 306 303 303 303 303 304 305 305 305 305 307 308 307 307 306 306
311 310 312 311 309 309 309 309 309 313 319 317 316 315 314 313 312 312 311 309 308 307 306 305 304 304 304 304 304 304 304 304 304 305 305 304 304 307 307 307 306 306 305 304
308 309 311 310 309 309 309 308 309 313 317 315 314 315 313 313 311 311 310 309 309 309 309 309 309 308 307 308 308 307 306 304 304 304 305 304 304 306 305 305 305 305 304 304
308 309 309 309 309 310 309 309 310 310 311 313 313 312 312 313 311 311 310 310 310 309 309 308 307 306 304 303 302 302 303 303 304 304 303 304 304 304 305 305 304 303 303 303

GFSCGP_850_thetae_174.txt.gz
Theta_e
309 308 308 308 311 312 313 314 316 316 315 316 317 317 316 315 316 314 317 318 320 321 322 323 322 340 346 348 349 345 338 334 334 333 330 329 327 327 327 327 326 327 327 327
313 310 309 309 310 311 312 313 313 313 313 314 315 316 315 315 315 315 316 317 319 320 321 323 321 338 345 346 347 348 347 344 338 333 331 329 327 327 326 326 327 329 333 334
313 312 313 312 311 311 311 312 312 313 314 313 314 315 314 314 314 315 316 317 318 319 321 322 323 328 344 346 346 346 348 348 346 337 332 331 329 329 331 336 339 335 341 343
310 313 314 314 316 314 314 312 313 315 318 316 313 316 313 312 312 312 313 316 317 319 320 320 322 321 341 347 346 346 346 348 348 345 338 334 336 335 333 337 341 338 343 346
308 308 309 313 314 315 315 315 315 317 320 321 319 317 316 311 313 312 311 314 317 318 319 319 321 321 333 343 345 346 346 346 347 346 343 340 339 338 337 339 342 342 342 346
306 307 311 312 313 315 315 317 317 318 318 323 319 319 317 316 313 313 312 315 317 318 319 319 320 322 321 325 325 329 337 342 346 346 342 342 344 342 341 342 343 344 343 344
306 307 306 310 313 314 312 317 316 314 316 318 317 319 319 316 314 314 315 314 317 317 318 320 320 320 320 320 321 321 328 332 337 346 345 345 345 344 343 344 343 345 345 346
308 308 307 309 312 313 313 314 315 310 312 317 318 322 319 317 317 317 317 317 317 318 318 317 317 318 320 322 321 320 321 325 330 335 340 344 345 344 345 345 342 346 347 347
308 309 308 309 311 311 313 313 314 315 316 315 316 316 315 315 316 314 314 316 317 317 318 317 318 319 320 320 320 320 322 325 325 327 330 338 343 344 345 345 344 347 348 348
309 310 309 310 311 313 315 314 317 314 318 317 315 316 315 314 314 315 315 316 317 317 318 318 318 319 320 321 320 320 320 322 322 324 326 329 335 343 346 344 345 346 347 346
308 309 310 310 313 313 315 317 316 314 313 316 316 315 312 314 313 318 319 320 321 321 322 322 321 319 319 319 318 319 320 321 322 327 330 334 336 343 346 345 345 347 346 344
309 308 308 314 312 314 315 316 314 315 314 316 317 316 317 317 320 320 318 319 318 318 320 321 323 322 321 321 319 318 320 324 325 325 331 339 341 346 347 345 344 344 340 333
308 310 310 311 313 314 315 315 317 315 317 317 317 315 314 317 317 317 318 318 318 319 318 320 325 328 323 322 322 319 320 324 328 334 337 342 346 347 347 344 342 342 339 340
308 309 312 310 310 310 312 313 315 312 313 312 315 315 315 315 315 314 316 319 321 321 322 319 322 329 331 324 322 320 322 332 338 340 342 346 344 347 344 342 342 340 341 341
308 312 311 310 311 311 311 312 312 312 312 313 312 312 312 313 313 314 319 321 321 323 322 320 321 326 331 332 324 321 332 340 345 348 346 343 343 343 341 342 340 340 340 337
304 303 305 308 309 310 311 311 311 312 312 312 312 312 312 312 312 313 316 322 323 322 325 321 322 333 333 331 322 326 337 338 348 348 344 343 344 340 339 339 339 338 338 334
305 307 306 308 310 310 313 314 313 314 312 315 316 313 312 313 321 322 320 321 321 324 326 328 337 332 324 329 333 336 340 337 343 343 343 343 341 338 337 338 338 338 333 332
306 307 307 309 309 313 316 313 313 313 315 318 319 319 318 320 319 316 316 320 321 321 322 327 335 334 335 338 330 337 339 340 338 341 341 340 338 338 338 338 334 332 330 329
305 308 308 310 312 313 316 311 313 312 314 316 316 321 322 320 318 313 311 312 316 315 318 319 322 333 334 334 332 333 334 335 333 336 338 338 337 337 334 330 329 328 328 321
309 305 309 313 314 313 313 310 308 311 319 313 313 315 322 320 317 312 309 309 309 314 317 314 316 323 326 324 329 330 325 326 324 326 332 335 333 333 329 328 322 319 316 309
312 310 308 309 312 313 310 307 308 321 320 311 312 317 314 313 312 309 309 309 308 308 310 311 313 315 314 317 325 323 316 315 313 317 325 325 325 326 322 319 312 310 307 307
312 312 314 312 311 311 307 306 312 312 310 311 313 313 311 310 308 306 307 308 308 308 308 308 310 310 310 314 321 314 312 313 316 321 323 321 318 316 311 308 306 306 307 308
312 309 309 310 310 308 306 308 310 311 310 311 313 311 309 307 306 306 305 306 306 307 308 308 309 309 308 310 313 316 310 311 313 315 313 311 309 307 306 306 307 308 308 308
309 308 310 310 309 309 309 310 313 316 314 312 311 310 309 306 306 305 305 305 306 306 306 307 308 307 307 306 307 306 307 307 307 306 306 306 306 307 307 308 308 308 308 307
308 308 310 310 309 309 307 309 312 312 312 310 309 308 308 307 305 305 305 306 306 306 306 307 306 306 305 305 304 305 304 305 306 306 306 306 306 307 307 308 307 307 306 305
307 309 308 308 308 308 306 307 309 310 310 309 309 308 307 306 305 305 305 305 306 305 306 306 306 305 305 306 306 305 306 304 305 306 306 307 307 307 307 306 305 304 304 303